Regional Weather Roundup
Issued by NWS Memphis, TN

Home | Current Version | Previous Version | Text Only | Print | Product List | Glossary On
Versions: 1 2 3 4 5 6 7 8 9 10 11 12 13 14 15 16 17 18 19 20 21 22 23 24 25 26 27 28 29 30 31 32 33 34 35 36 37 38 39 40 41 42 43 44 45 46 47 48 49 50
000
ASUS44 KMEG 191010
RWRMEG
MEMPHIS CWA HOURLY WEATHER ROUNDUP
NATIONAL WEATHER SERVICE MEMPHIS TN
400 AM CST FRI JAN 19 2018

...WEST TENNESSEE...

CITY           SKY/WX    TMP DP  RH WIND       PRES   REMARKS
MEMPHIS INTL   FAIR      23  17  78 S6        30.30F WCI  16
NWS MEMPHIS      N/A     23 N/A N/A MISG        N/A
JACKSON        FAIR      22  12  65 SW9       30.30F WCI  12
COVINGTON      CLEAR     21  16  79 S6        30.29F WCI  14
SOMERVILLE     CLEAR     25  16  68 S6        30.29F WCI  18
BOLIVAR        CLEAR     21  12  68 CALM      30.30S
LEXINGTON      CLEAR     21  14  73 S6        30.31S WCI  14
SELMER         CLEAR     21  12  68 SW3       30.31S
SAVANNAH       CLEAR     21  16  79 S5        30.32S WCI  15
DYERSBURG      FAIR      23  16  74 S6        30.28F WCI  16
UNION CITY     CLEAR     16  10  79 S8        30.27F WCI   5
PARIS          CLEAR     19   9  63 S7        30.26F WCI  10
HUNTINGDON     CLEAR     23  10  58 SW3       30.27F


...EASTERN ARKANSAS...

CITY           SKY/WX    TMP DP  RH WIND       PRES   REMARKS
JONESBORO      FAIR      26  20  77 SW8       30.26F WCI  18
WEST MEMPHIS   FAIR      20  18  92 S7        30.30F WCI  11
BATESVILLE     FAIR      28  16  60 S9        30.24F WCI  19
NEWPORT        FAIR      23  20  88 S9        30.27F WCI  13
WALNUT RIDGE   FAIR      24  20  84 S9        30.24F WCI  14
BLYTHEVILLE    FAIR      25  21  85 SW14      30.27F WCI  13
SEARCY         FAIR      17  17 100 S3        30.30F
STUTTGART      FAIR      25  19  78 SW8       30.31F WCI  16
PINE BLUFF     FAIR      26  16  65 SW6       30.32F WCI  19
MONTICELLO     FAIR      31  15  52 S5        30.31F WCI  26


...NORTH MISSISSIPPI...

CITY           SKY/WX    TMP DP  RH WIND       PRES   REMARKS
TUPELO         FAIR      18  14  84 CALM      30.35S
OXFORD         FAIR      19  14  79 CALM      30.35S
BATESVILLE     FAIR      15  12  88 CALM      30.35S
TUNICA           N/A     19  18  93 S7        30.35S WCI  10
CLARKSDALE     CLEAR     23  21  93 S6        30.34S WCI  16
CORINTH        FAIR      19  16  86 SE5       30.32F WCI  13
GREENWOOD      FAIR      18  14  84 CALM      30.35F
COLUMBUS       FAIR      13  11  91 CALM      30.36F
STARKVILLE     FAIR      14  14 100 CALM      30.37F
GOLDEN TRIANGL FAIR      17  13  84 S5        30.37F WCI  10


...SOUTHEAST MISSOURI...

CITY           SKY/WX    TMP DP  RH WIND       PRES   REMARKS
KENNETT          N/A     23  19  86 MISG      30.25F
MALDEN         FAIR      25  19  80 S8        30.25F WCI  16
WEST PLAINS    CLOUDY    28  11  48 SW5       30.15S WCI  23
POPLAR BLUFF   FAIR      22  17  81 SW5       30.23F WCI  16
CAPE GIRARDEAU FAIR      17  14  88 S5        30.24S WCI  10


...NORTHWEST ALABAMA...

CITY           SKY/WX    TMP DP  RH WIND       PRES   REMARKS
MUSCLE SHOALS  FAIR      20  15  81 CALM      30.35S


...MIDDLE TENNESSEE...

CITY           SKY/WX    TMP DP  RH WIND       PRES   REMARKS
NASHVILLE      FAIR      21  13  71 S8        30.31S WCI  11
CLARKSVILLE    FAIR      19  10  68 S3        30.28S
COLUMBIA       CLEAR     21  14  73 SW6       30.29F WCI  14


...WESTERN KENTUCKY...

CITY           SKY/WX    TMP DP  RH WIND       PRES   REMARKS
PADUCAH        FAIR      20  10  65 S5        30.24F WCI  13
FORT CAMPBELL  FAIR      17  10  73 S3        30.27S


...CENTRAL ARKANSAS...

CITY           SKY/WX    TMP DP  RH WIND       PRES   REMARKS
LITTLE ROCK    FAIR      26  15  63 SW5       30.31S WCI  20


SKY/WX REPORTED AS FAIR MEANS FEW OR NO CLOUDS BELOW
12 THOUSAND FEET.




USA.gov is the U.S. government's official web portal to all federal, state and local government web resources and services.